DEIMOS-1

Last updated on Sat Apr 13 2024 01:02:24 GMT+0100 (British Summer Time)

1 35681U 09041A 24103.58631920 .00000809 00000+0 13278-3 0 9991 2 35681 97.6801 289.0335 0000807 167.0070 193.1160 14.73144748789651
UTC large
Height (km)
Speed (km/s)
/
Latitude / Longitude
Inclination (degrees)
Orbital Period (minutes)
Azimuth
Elevation
Range (km)
Doppler Factor

Next 0 passes for location: London (51.5072 / 0.1276)

Sorry there are no passes over London.